{"data":{"norad_id":63166,"intl_designator":"2025-046H","name":"QIANFAN-80","alt_names":[],"object_type":"PAYLOAD","status":"ACTIVE","operator":null,"country":"PRC","launch_date":"2025-03-11","launch_site_code":"WSC","launch_vehicle":null,"mission":null,"orbit_class":"UNKNOWN","rcs_meters":null,"size_class":null,"mass_kg":null,"dimensions":null,"purposes":[],"wikipedia_slug":null,"has_3d_model":false,"image_url":null,"decayed_at":null,"tle_current":{"epoch":"2026-05-25T04:34:48.953568Z","epoch_age_seconds":65337,"freshness":"FRESH","line1":"1 63166U 25046H   26145.19084437  .00000040  00000+0  42746-4 0  9993","line2":"2 63166  88.9691 302.8615 0014175  28.4032 331.7889 13.51005287 69609","mean_motion":13.51005287,"eccentricity":0.0014175,"inclination_deg":88.9691,"raan_deg":302.8615,"arg_perigee_deg":28.4032,"mean_anomaly_deg":331.7889,"bstar":4.2746e-5,"rev_number":6960,"period_min":106.58729568687,"perigee_km":1058.0064612732,"apogee_km":1079.1178533842,"semimajor_km":7446.6991573287,"source":"CELESTRAK","updated_at":"2026-05-25T13:38:03.539853Z"}}}